Printer-friendly version

IAU Minor Planet Center

Minor Planet Center

(76008) 2000 DV22

Orbital Elements

The following orbital elements are taken from MPO 54747
 (76008) 2000 DV22
Epoch 2007 Oct. 27.0 TT = JDT 2454400.5                 MPC
M 349.73485              (2000.0)            P               Q
n   0.22970399     Peri.   92.36335     +0.36545122     -0.93061045
a   2.6405255      Node   336.17009     +0.83287605     +0.33662503
e   0.1079270      Incl.    2.87130     +0.41564756     +0.14369337
P   4.29           H   16.0           G   0.15           U   1
From 46 observations at 4 oppositions, 1998-2004, mean residual 0".59.
An explanation of the orbital elements is available.

These orbital elements are also available in forms suitable for loading into a number of popular planetarium-type software programs.


Ephemeris

The following ephemeris is at intervals of five days. A daily ephemeris covering the same time interval is also available.

Personalized ephemerides for this (and other) objects may be generated using the Minor Planet & Comet Ephemeris Service.

Date    TT    R. A. (2000) Decl.     Delta      r     Elong.  Phase     V
2009 10 26    14 50.26   -18 30.9    3.866    2.908    13.3     4.5    21.6

2010 05 04    18 58.38   -26 15.1    2.269    2.909   120.1    17.4    21.0
2010 05 09    18 58.56   -26 19.1    2.209    2.907   124.9    16.5    20.9
2010 05 14    18 58.07   -26 23.9    2.152    2.905   129.9    15.5    20.8
2010 05 19    18 56.90   -26 29.4    2.099    2.904   134.9    14.3    20.7
2010 05 24    18 55.06   -26 35.3    2.051    2.901   140.1    12.9    20.6
2010 05 29    18 52.57   -26 41.5    2.007    2.899   145.5    11.4    20.5
2010 06 03    18 49.46   -26 47.7    1.969    2.897   150.9     9.8    20.4
2010 06 08    18 45.79   -26 53.6    1.936    2.895   156.5     8.1    20.3
2010 06 13    18 41.63   -26 58.9    1.909    2.892   162.1     6.2    20.2
2010 06 18    18 37.07   -27 03.3    1.889    2.890   167.7     4.3    20.1
2010 06 23    18 32.23   -27 06.5    1.876    2.887   173.0     2.5    19.9
2010 06 28    18 27.25   -27 08.4    1.870    2.885   176.2     1.4    19.8
2010 07 03    18 22.24   -27 08.7    1.870    2.882   173.0     2.5    19.9
2010 07 08    18 17.34   -27 07.5    1.878    2.879   167.7     4.3    20.0
2010 07 13    18 12.69   -27 04.9    1.892    2.876   162.1     6.2    20.2
2010 07 18    18 08.40   -27 00.9    1.913    2.873   156.5     8.1    20.3
2010 07 23    18 04.59   -26 55.8    1.940    2.870   150.9     9.9    20.4
2010 07 28    18 01.33   -26 49.9    1.972    2.867   145.5    11.6    20.5
2010 08 02    17 58.68   -26 43.4    2.010    2.864   140.1    13.1    20.6
2010 08 07    17 56.68   -26 36.5    2.053    2.860   134.9    14.5    20.7
2010 08 12    17 55.37   -26 29.4    2.100    2.857   129.8    15.8    20.8
2010 08 17    17 54.75   -26 22.3    2.151    2.854   124.9    16.9    20.8
2010 08 22    17 54.82   -26 15.4    2.205    2.850   120.1    17.9    20.9

Valid HTML 4.01!